Home   Weather   Valladolid   Past weeks

Flag for Spain Past Weather in Valladolid, Spain — Yesterday and Last 2 Weeks

Now
63 °F

Clear.


Feels Like: 63 °F
Forecast: 53 / 72 °F
Wind: 2 mph from Southwest

Location: Valladolid / Villanubla

Current Time: Sep 24, 2016 at 11:03:35 PM

Latest Report: Sep 24, 2016 at 9:30 PM


Visibility: 10 mi

Pressure: 30.12 "Hg (27.70 "Hg at 712m altitude)

Humidity: 39%

Dew Point: 37 °F

Location of ValladolidLocation

Past Weather in Valladolid — Graph

°F

Valladolid Temperature Yesterday

Maximum temperature yesterday: 77 °F (at 5:30 PM)
Minimum temperature yesterday: 48 °F (at 7:00 AM)
Average temperature yesterday: 66 °F

High & Low Weather Summary for the Past Weeks

 TemperatureHumidityPressure
High88 °F (Sep 12, 3:30 PM)100% (Sep 21, 8:30 AM)30.30 "Hg (Sep 21, 8:30 AM)
Low43 °F (Sep 18, 7:00 AM)16% (Sep 21, 5:30 PM)29.86 "Hg (Sep 13, 8:00 AM)
Average63 °F54%30.10 "Hg
* Reported Sep 9 9:00 PM — Sep 24 9:30 PM, Valladolid, Weather by CustomWeather, © 2016

Note: Actual official high and low records may vary slightly from our data, if they occured in-between our weather recording intervals... More about our weather records

Advertising

Valladolid Weather History for the Previous 24 Hours

Scroll right to see more
 ConditionsComfort  
Time TempWeatherWind HumidityBarometerVisibility
9:30 PM
Sat, Sep 24
63 °FClear.2 mph39%30.12 "Hg10 mi
9:00 PM66 °FClear.2 mph35%30.12 "Hg10 mi
8:30 PM68 °FClear.2 mph33%30.12 "Hg10 mi
8:00 PM72 °FSunny.5 mph29%30.12 "Hg10 mi
7:30 PM73 °FSunny.6 mph23%30.12 "Hg10 mi
7:00 PM75 °FSunny.10 mph24%30.12 "Hg10 mi
6:30 PM75 °FPassing clouds.13 mph24%30.12 "HgN/A
6:00 PM77 °FPassing clouds.13 mph24%30.12 "HgN/A
5:30 PM77 °FPassing clouds.9 mph21%30.12 "HgN/A
5:00 PM75 °FSunny.13 mph21%30.12 "Hg10 mi
4:30 PM77 °FPassing clouds.13 mph22%30.15 "HgN/A
4:00 PM77 °FPassing clouds.12 mph22%30.15 "HgN/A
3:30 PM79 °FPassing clouds.10 mph23%30.15 "HgN/A
3:00 PM77 °FPassing clouds.10 mph21%30.18 "HgN/A
2:30 PM77 °FPassing clouds.12 mph22%30.18 "HgN/A
2:00 PM75 °FPassing clouds.9 mph27%30.18 "HgN/A
1:30 PM75 °FPassing clouds.9 mph29%30.18 "HgN/A
1:00 PM73 °FPassing clouds.6 mph31%30.21 "HgN/A
12:30 PM72 °FPassing clouds.3 mph33%30.21 "HgN/A
12:00 PM68 °FPassing clouds.3 mph40%30.21 "HgN/A
11:30 AM66 °FPassing clouds.5 mph40%30.21 "HgN/A
11:00 AM64 °FPassing clouds.3 mph46%30.21 "HgN/A
10:30 AM61 °FPassing clouds.5 mph55%30.21 "HgN/A
10:00 AM57 °FPassing clouds.5 mph59%30.21 "HgN/A
9:30 AM54 °FSunny.2 mph67%30.21 "Hg10 mi
9:00 AM48 °FSunny.2 mph82%30.21 "Hg10 mi
8:30 AM45 °FSunny.3 mph81%30.21 "Hg10 mi
8:00 AM45 °FClear.6 mph81%30.21 "Hg10 mi
7:30 AM46 °FClear.5 mph76%30.21 "Hg10 mi
7:00 AM46 °FPassing clouds.3 mph82%30.18 "HgN/A
Weather by CustomWeather, © 2016

See weather overviewHow to use our weather pages